QPF
0.00 0.00 0.00 0.00 0.00 0.00 0.00 0.00 0.00 0.00 0.00 0.00 0.00 0.00 0.00 0.00 0.00 0.00 0.00 0.00 0.00 0.00 0.00 0.00 0.00 0.00 0.00 0.00 0.00 0.00 0.00 0.00 0.00 0.04 0.01 0.00 0.00 0.00 0.00 0.00 0.00 0.00 0.00 0.00 0.00 0.00 0.00 0.00 0.00 0.00 0.00 0.00 0.00 0.00
0.00 0.00 0.00 0.00 0.00 0.00 0.00 0.00 0.00 0.00 0.00 0.00 0.00 0.00 0.00 0.00 0.00 0.00 0.00 0.00 0.00 0.00 0.00 0.00 0.00 0.00 0.00 0.00 0.00 0.00 0.00 0.00 0.02 0.04 0.02 0.00 0.00 0.00 0.00 0.00 0.00 0.00 0.00 0.00 0.00 0.00 0.00 0.00 0.00 0.00 0.00 0.00 0.00 0.00
0.00 0.00 0.00 0.00 0.00 0.00 0.00 0.00 0.00 0.00 0.00 0.00 0.00 0.00 0.00 0.00 0.00 0.00 0.00 0.00 0.00 0.00 0.00 0.00 0.00 0.00 0.00 0.00 0.00 0.00 0.00 0.00 0.00 0.00 0.00 0.02 0.02 0.00 0.00 0.00 0.01 0.00 0.00 0.00 0.00 0.00 0.00 0.00 0.00 0.00 0.00 0.00 0.00 0.00
0.00 0.00 0.00 0.00 0.00 0.00 0.00 0.00 0.00 0.00 0.00 0.00 0.00 0.00 0.00 0.00 0.00 0.00 0.00 0.00 0.00 0.00 0.00 0.00 0.00 0.00 0.00 0.00 0.00 0.00 0.00 0.00 0.00 0.00 0.01 0.01 0.01 0.01 0.00 0.00 0.00 0.00 0.00 0.00 0.00 0.00 0.00 0.00 0.00 0.00 0.00 0.00 0.00 0.00
0.00 0.00 0.00 0.00 0.00 0.00 0.00 0.00 0.00 0.00 0.00 0.00 0.00 0.00 0.00 0.00 0.00 0.00 0.00 0.00 0.00 0.00 0.00 0.00 0.00 0.00 0.00 0.00 0.00 0.00 0.00 0.00 0.00 0.00 0.00 0.00 0.00 0.01 0.00 0.00 0.00 0.00 0.00 0.00 0.00 0.00 0.00 0.00 0.00 0.00 0.00 0.00 0.00 0.00
0.00 0.00 0.00 0.00 0.00 0.00 0.00 0.00 0.00 0.00 0.00 0.00 0.00 0.00 0.00 0.00 0.00 0.00 0.00 0.00 0.00 0.00 0.00 0.00 0.00 0.00 0.00 0.00 0.00 0.00 0.00 0.00 0.00 0.00 0.00 0.00 0.00 0.00 0.00 0.00 0.00 0.00 0.00 0.00 0.00 0.00 0.00 0.00 0.00 0.00 0.00 0.00 0.00 0.00
0.00 0.00 0.00 0.00 0.00 0.00 0.00 0.00 0.00 0.00 0.00 0.00 0.00 0.00 0.00 0.00 0.00 0.00 0.00 0.00 0.00 0.00 0.00 0.00 0.00 0.00 0.00 0.00 0.00 0.00 0.00 0.00 0.00 0.00 0.00 0.00 0.00 0.00 0.00 0.01 0.01 0.01 0.01 0.00 0.00 0.00 0.00 0.00 0.00 0.00 0.00 0.00 0.00 0.00
0.00 0.00 0.00 0.00 0.00 0.00 0.00 0.00 0.00 0.00 0.00 0.00 0.00 0.00 0.00 0.00 0.00 0.00 0.00 0.00 0.00 0.00 0.00 0.00 0.00 0.00 0.00 0.00 0.00 0.00 0.00 0.00 0.00 0.00 0.00 0.00 0.00 0.00 0.00 0.00 0.00 0.01 0.00 0.01 0.00 0.00 0.00 0.00 0.00 0.00 0.00 0.00 0.00 0.00
0.00 0.00 0.00 0.00 0.00 0.00 0.00 0.00 0.00 0.00 0.00 0.00 0.00 0.00 0.00 0.00 0.00 0.00 0.00 0.00 0.00 0.00 0.00 0.00 0.00 0.00 0.00 0.00 0.00 0.00 0.00 0.00 0.00 0.00 0.00 0.00 0.00 0.00 0.00 0.00 0.00 0.00 0.00 0.00 0.00 0.00 0.00 0.00 0.00 0.00 0.00 0.00 0.00 0.00
0.00 0.00 0.00 0.00 0.00 0.00 0.00 0.00 0.00 0.00 0.00 0.00 0.00 0.00 0.00 0.00 0.00 0.00 0.00 0.00 0.00 0.00 0.00 0.00 0.00 0.00 0.00 0.00 0.00 0.01 0.00 0.00 0.00 0.00 0.00 0.00 0.00 0.00 0.00 0.00 0.00 0.00 0.00 0.00 0.00 0.00 0.00 0.00 0.00 0.00 0.00 0.00 0.00 0.00
0.00 0.00 0.00 0.00 0.00 0.00 0.00 0.00 0.00 0.00 0.00 0.00 0.00 0.00 0.00 0.00 0.00 0.01 0.00 0.00 0.00 0.00 0.00 0.00 0.00 0.00 0.00 0.00 0.00 0.01 0.01 0.01 0.02 0.01 0.01 0.00 0.00 0.00 0.00 0.00 0.00 0.00 0.00 0.00 0.00 0.00 0.00 0.00 0.00 0.00 0.00 0.01 0.00 0.00
0.00 0.00 0.00 0.00 0.00 0.00 0.00 0.00 0.00 0.00 0.00 0.00 0.00 0.00 0.00 0.00 0.00 0.01 0.04 0.05 0.04 0.05 0.04 0.02 0.02 0.00 0.00 0.00 0.00 0.00 0.00 0.00 0.01 0.00 0.00 0.00 0.00 0.00 0.00 0.00 0.00 0.00 0.00 0.00 0.00 0.00 0.00 0.00 0.00 0.00 0.00 0.00 0.00 0.00
0.00 0.00 0.00 0.00 0.00 0.00 0.00 0.00 0.00 0.00 0.00 0.00 0.00 0.00 0.00 0.00 0.04 0.05 0.04 0.05 0.08 0.05 0.02 0.00 0.01 0.00 0.00 0.01 0.01 0.00 0.01 0.01 0.00 0.00 0.00 0.00 0.00 0.00 0.00 0.00 0.00 0.00 0.00 0.00 0.00 0.00 0.00 0.00 0.00 0.00 0.00 0.00 0.00 0.00
0.00 0.00 0.00 0.00 0.00 0.00 0.00 0.00 0.00 0.00 0.00 0.00 0.00 0.00 0.01 0.01 0.02 0.05 0.05 0.08 0.09 0.08 0.04 0.00 0.01 0.00 0.00 0.00 0.00 0.01 0.01 0.01 0.00 0.00 0.00 0.00 0.00 0.00 0.00 0.00 0.00 0.00 0.00 0.00 0.00 0.00 0.00 0.00 0.00 0.00 0.00 0.00 0.00 0.00
0.00 0.00 0.00 0.00 0.00 0.00 0.00 0.00 0.00 0.00 0.00 0.00 0.00 0.00 0.00 0.00 0.02 0.04 0.04 0.03 0.01 0.00 0.00 0.00 0.00 0.00 0.01 0.00 0.00 0.00 0.00 0.01 0.00 0.01 0.01 0.00 0.00 0.00 0.00 0.00 0.00 0.00 0.00 0.03 0.04 0.04 0.03 0.01 0.00 0.00 0.00 0.00 0.00 0.00
0.00 0.00 0.00 0.00 0.00 0.00 0.00 0.00 0.00 0.00 0.00 0.00 0.00 0.00 0.00 0.00 0.00 0.01 0.00 0.01 0.00 0.00 0.00 0.00 0.00 0.00 0.01 0.01 0.00 0.00 0.00 0.00 0.00 0.00 0.00 0.00 0.00 0.00 0.00 0.00 0.00 0.01 0.04 0.01 0.07 0.06 0.02 0.01 0.00 0.00 0.00 0.00 0.00 0.00
0.00 0.00 0.00 0.00 0.00 0.00 0.00 0.00 0.00 0.00 0.00 0.00 0.00 0.00 0.00 0.00 0.00 0.00 0.00 0.00 0.00 0.00 0.01 0.01 0.01 0.00 0.00 0.01 0.01 0.00 0.00 0.01 0.00 0.00 0.00 0.00 0.00 0.00 0.00 0.00 0.00 0.00 0.03 0.04 0.09 0.03 0.01 0.00 0.01 0.00 0.00 0.00 0.00 0.00
0.00 0.00 0.00 0.00 0.00 0.00 0.00 0.00 0.00 0.00 0.00 0.00 0.00 0.00 0.00 0.00 0.00 0.00 0.00 0.00 0.00 0.00 0.02 0.03 0.02 0.03 0.02 0.01 0.01 0.01 0.00 0.00 0.00 0.00 0.00 0.00 0.00 0.00 0.00 0.00 0.00 0.00 0.02 0.08 0.05 0.01 0.01 0.01 0.00 0.00 0.00 0.00 0.00 0.00
0.00 0.00 0.00 0.00 0.00 0.00 0.00 0.00 0.00 0.00 0.00 0.00 0.00 0.00 0.00 0.00 0.00 0.00 0.00 0.00 0.00 0.01 0.01 0.04 0.03 0.01 0.01 0.01 0.00 0.00 0.00 0.00 0.00 0.00 0.00 0.00 0.00 0.00 0.00 0.01 0.01 0.00 0.01 0.03 0.02 0.02 0.02 0.04 0.02 0.00 0.00 0.00 0.00 0.00
0.00 0.00 0.00 0.00 0.00 0.00 0.00 0.00 0.00 0.00 0.00 0.00 0.00 0.00 0.00 0.00 0.00 0.00 0.00 0.00 0.00 0.01 0.01 0.02 0.01 0.00 0.00 0.00 0.00 0.00 0.00 0.00 0.00 0.00 0.00 0.00 0.00 0.00 0.00 0.02 0.01 0.01 0.05 0.04 0.03 0.02 0.05 0.07 0.04 0.02 0.01 0.00 0.00 0.00
0.00 0.00 0.00 0.00 0.00 0.00 0.00 0.00 0.00 0.00 0.00 0.00 0.00 0.00 0.00 0.00 0.00 0.00 0.00 0.00 0.00 0.00 0.00 0.01 0.01 0.00 0.00 0.00 0.02 0.02 0.01 0.00 0.00 0.00 0.00 0.00 0.00 0.01 0.01 0.02 0.02 0.02 0.05 0.06 0.03 0.06 0.08 0.06 0.02 0.02 0.01 0.00 0.00 0.00
0.00 0.00 0.00 0.00 0.00 0.00 0.00 0.00 0.00 0.00 0.00 0.00 0.00 0.00 0.00 0.00 0.00 0.00 0.00 0.00 0.00 0.00 0.00 0.00 0.00 0.00 0.01 0.02 0.01 0.01 0.00 0.00 0.00 0.00 0.00 0.00 0.01 0.01 0.02 0.04 0.02 0.02 0.04 0.04 0.03 0.03 0.05 0.05 0.02 0.00 0.00 0.00 0.00 0.00
0.00 0.00 0.00 0.00 0.00 0.00 0.00 0.00 0.00 0.00 0.00 0.00 0.00 0.00 0.00 0.00 0.00 0.00 0.00 0.00 0.00 0.00 0.01 0.00 0.01 0.00 0.00 0.00 0.00 0.00 0.01 0.00 0.01 0.02 0.02 0.03 0.01 0.01 0.02 0.03 0.05 0.03 0.02 0.01 0.02 0.01 0.01 0.01 0.01 0.00 0.00 0.00 0.00 0.00
0.00 0.00 0.00 0.00 0.00 0.00 0.00 0.00 0.00 0.00 0.00 0.00 0.00 0.00 0.00 0.00 0.00 0.00 0.00 0.00 0.00 0.00 0.00 0.00 0.00 0.00 0.00 0.00 0.01 0.01 0.02 0.01 0.01 0.02 0.00 0.00 0.01 0.02 0.05 0.08 0.08 0.04 0.02 0.01 0.01 0.02 0.02 0.00 0.00 0.00 0.00 0.00 0.00 0.00
0.00 0.00 0.00 0.00 0.00 0.00 0.00 0.00 0.00 0.00 0.00 0.00 0.00 0.01 0.00 0.00 0.01 0.00 0.00 0.00 0.00 0.00 0.00 0.00 0.00 0.00 0.00 0.01 0.01 0.03 0.02 0.01 0.03 0.03 0.02 0.03 0.05 0.02 0.02 0.04 0.02 0.01 0.01 0.00 0.00 0.00 0.00 0.00 0.00 0.00 0.00 0.00 0.00 0.00
0.00 0.00 0.00 0.00 0.00 0.00 0.00 0.00 0.00 0.00 0.00 0.00 0.00 0.00 0.00 0.01 0.02 0.00 0.00 0.00 0.00 0.00 0.00 0.00 0.01 0.02 0.01 0.01 0.03 0.04 0.04 0.01 0.00 0.00 0.00 0.00 0.00 0.00 0.00 0.00 0.00 0.00 0.00 0.00 0.00 0.00 0.00 0.00 0.00 0.00 0.00 0.00 0.00 0.00
0.00 0.00 0.00 0.00 0.00 0.00 0.00 0.00 0.00 0.00 0.00 0.00 0.00 0.00 0.00 0.01 0.01 0.00 0.00 0.00 0.00 0.00 0.00 0.00 0.00 0.00 0.00 0.01 0.04 0.04 0.01 0.00 0.00 0.00 0.00 0.00 0.00 0.00 0.00 0.00 0.00 0.00 0.00 0.00 0.00 0.00 0.00 0.00 0.00 0.00 0.00 0.00 0.00 0.00
0.00 0.00 0.00 0.00 0.00 0.00 0.00 0.00 0.00 0.00 0.00 0.00 0.00 0.00 0.00 0.01 0.01 0.00 0.00 0.00 0.00 0.00 0.00 0.00 0.00 0.00 0.00 0.00 0.00 0.00 0.00 0.00 0.00 0.00 0.00 0.00 0.00 0.00 0.00 0.00 0.00 0.00 0.00 0.00 0.00 0.00 0.00 0.00 0.00 0.00 0.00 0.00 0.00 0.00
0.00 0.00 0.00 0.00 0.00 0.00 0.00 0.00 0.00 0.00 0.00 0.00 0.01 0.00 0.00 0.00 0.00 0.00 0.00 0.00 0.00 0.00 0.00 0.00 0.00 0.00 0.00 0.00 0.01 0.00 0.00 0.00 0.00 0.00 0.00 0.00 0.00 0.00 0.00 0.00 0.00 0.00 0.00 0.00 0.00 0.00 0.00 0.00 0.00 0.00 0.00 0.00 0.00 0.00
0.00 0.00 0.00 0.00 0.00 0.00 0.00 0.00 0.00 0.00 0.00 0.00 0.00 0.00 0.00 0.00 0.02 0.01 0.02 0.01 0.00 0.00 0.00 0.00 0.00 0.01 0.00 0.00 0.00 0.00 0.00 0.00 0.00 0.00 0.00 0.00 0.00 0.00 0.00 0.00 0.00 0.00 0.00 0.00 0.00 0.00 0.00 0.00 0.00 0.00 0.00 0.00 0.00 0.00
0.00 0.00 0.00 0.00 0.00 0.00 0.00 0.00 0.00 0.00 0.00 0.00 0.00 0.00 0.00 0.00 0.00 0.00 0.00 0.00 0.00 0.00 0.00 0.00 0.00 0.00 0.00 0.00 0.00 0.00 0.00 0.00 0.00 0.00 0.00 0.00 0.00 0.00 0.00 0.00 0.00 0.00 0.00 0.00 0.00 0.00 0.00 0.00 0.00 0.00 0.00 0.00 0.00 0.00
0.00 0.00 0.00 0.00 0.00 0.00 0.00 0.00 0.00 0.00 0.00 0.00 0.00 0.00 0.00 0.00 0.00 0.00 0.00 0.00 0.00 0.00 0.00 0.00 0.00 0.00 0.00 0.00 0.00 0.00 0.00 0.00 0.00 0.00 0.00 0.00 0.00 0.00 0.00 0.00 0.00 0.00 0.00 0.00 0.00 0.00 0.00 0.00 0.00 0.00 0.00 0.00 0.00 0.00
0.00 0.00 0.00 0.00 0.01 0.02 0.02 0.02 0.05 0.03 0.00 0.00 0.00 0.00 0.00 0.00 0.00 0.00 0.00 0.00 0.00 0.00 0.00 0.00 0.00 0.00 0.00 0.00 0.00 0.00 0.00 0.00 0.00 0.00 0.00 0.00 0.00 0.00 0.00 0.00 0.00 0.00 0.00 0.00 0.00 0.00 0.00 0.00 0.00 0.00 0.00 0.00 0.00 0.00
MSLP
1021.69 1021.30 1020.85 1020.39 1019.92 1019.43 1018.98 1018.56 1018.04 1017.60 1017.19 1016.85 1016.53 1016.27 1016.10 1015.96 1015.84 1015.82 1015.64 1015.86 1015.50 1014.19 1011.60 1010.47 1009.59 1008.71 1008.19 1007.82 1007.25 1006.70 1006.25 1005.94 1005.31 1005.06 1004.54 1003.94 1003.56 1002.94 1002.62 1002.32 1001.89 1001.51 1001.11 1000.89 1000.95 1000.19 1000.03 1000.39 1001.13 1000.89 1001.18 1001.50 1001.69 1002.15
1021.52 1021.10 1020.66 1020.21 1019.73 1019.22 1018.74 1018.32 1017.84 1017.35 1016.92 1016.54 1016.24 1016.00 1015.80 1015.70 1015.60 1015.53 1015.58 1015.55 1015.68 1015.14 1011.86 1010.66 1009.37 1008.49 1007.99 1007.44 1007.26 1006.94 1006.49 1006.12 1005.49 1005.01 1004.91 1004.33 1003.80 1003.66 1002.91 1002.46 1002.57 1002.17 1001.64 1000.96 1000.78 1000.11 1000.05 1000.49 1000.71 1001.21 1001.57 1001.75 1002.25 1002.58
1021.29 1020.88 1020.44 1019.98 1019.48 1018.95 1018.45 1017.99 1017.51 1017.04 1016.63 1016.19 1015.85 1015.66 1015.48 1015.38 1015.31 1015.30 1015.10 1015.18 1015.52 1014.70 1011.75 1009.88 1007.51 1006.98 1007.23 1006.93 1007.12 1007.13 1006.38 1006.12 1005.75 1005.54 1005.12 1004.99 1004.64 1004.14 1003.29 1002.73 1002.23 1002.11 1002.37 1001.85 1001.08 1000.87 1000.83 1001.05 1001.45 1001.79 1001.99 1001.92 1002.41 1002.82
1021.00 1020.57 1020.12 1019.66 1019.16 1018.64 1018.12 1017.60 1017.12 1016.63 1016.21 1015.84 1015.48 1015.18 1014.99 1014.89 1014.83 1014.85 1014.84 1014.67 1015.00 1014.50 1012.82 1007.91 1006.80 1006.21 1005.80 1006.01 1006.35 1006.04 1006.17 1006.41 1006.18 1005.92 1005.43 1004.89 1004.52 1004.47 1003.55 1003.37 1003.03 1002.73 1002.68 1002.19 1001.51 1001.17 1001.49 1001.55 1001.75 1001.91 1002.07 1002.37 1002.62 1002.86
1020.59 1020.18 1019.75 1019.31 1018.81 1018.29 1017.75 1017.22 1016.69 1016.17 1015.71 1015.32 1015.01 1014.69 1014.42 1014.25 1014.23 1014.27 1014.17 1013.99 1014.20 1014.28 1012.58 1008.83 1006.86 1005.48 1005.40 1005.47 1005.74 1006.02 1006.35 1006.48 1006.35 1005.49 1005.00 1004.35 1004.23 1004.27 1003.90 1003.67 1002.74 1002.47 1001.93 1001.72 1000.98 1001.13 1001.41 1001.65 1001.97 1002.27 1002.21 1002.14 1002.59 1002.88
1020.17 1019.75 1019.31 1018.89 1018.44 1017.90 1017.35 1016.83 1016.29 1015.74 1015.17 1014.66 1014.24 1013.89 1013.64 1013.59 1013.71 1013.90 1013.44 1013.30 1013.40 1013.98 1013.22 1010.31 1006.94 1005.50 1005.04 1005.00 1005.15 1005.58 1005.98 1006.47 1006.45 1005.58 1004.49 1003.90 1003.79 1003.77 1003.28 1002.76 1001.97 1002.05 1002.10 1001.94 1001.59 1001.61 1001.80 1001.95 1002.26 1002.45 1002.53 1002.68 1002.84 1002.95
1019.68 1019.29 1018.87 1018.46 1018.01 1017.47 1016.93 1016.40 1015.81 1015.21 1014.55 1013.91 1013.31 1012.85 1012.70 1012.91 1013.31 1013.14 1013.08 1013.07 1013.10 1013.66 1012.86 1010.21 1007.03 1005.12 1004.89 1004.82 1005.02 1005.56 1005.93 1005.89 1005.67 1005.12 1004.42 1003.73 1003.55 1003.64 1002.93 1002.19 1001.54 1001.73 1001.75 1001.77 1002.11 1002.22 1002.17 1002.26 1002.11 1002.45 1002.48 1002.74 1003.12 1003.32
1019.21 1018.86 1018.43 1017.97 1017.52 1017.04 1016.50 1015.90 1015.25 1014.57 1013.88 1013.23 1012.60 1012.03 1011.73 1012.23 1012.88 1012.73 1011.85 1012.78 1013.11 1013.09 1012.23 1010.32 1007.20 1005.37 1004.49 1004.25 1004.46 1005.02 1005.26 1005.54 1005.21 1004.24 1003.99 1003.26 1003.30 1003.09 1002.26 1001.67 1001.31 1001.68 1001.88 1001.71 1001.74 1002.00 1001.89 1002.00 1002.24 1002.49 1002.68 1002.87 1003.05 1003.37
1018.71 1018.39 1018.01 1017.57 1017.09 1016.57 1016.05 1015.47 1014.74 1013.94 1013.10 1012.58 1012.23 1012.12 1012.27 1012.45 1012.36 1012.02 1011.87 1012.66 1013.05 1013.07 1011.33 1009.82 1007.72 1005.34 1004.48 1004.45 1004.45 1004.60 1004.61 1004.60 1004.63 1003.85 1003.40 1003.32 1002.75 1002.22 1001.60 1001.62 1001.52 1002.00 1002.01 1001.86 1001.70 1002.06 1002.20 1002.14 1002.25 1002.43 1002.48 1002.78 1002.96 1003.46
1018.21 1017.84 1017.48 1017.07 1016.61 1016.11 1015.58 1015.00 1014.39 1013.56 1012.50 1012.05 1012.12 1012.02 1011.75 1012.48 1012.42 1012.54 1012.22 1012.57 1012.62 1011.50 1011.02 1009.26 1007.78 1006.07 1005.35 1004.47 1004.49 1004.50 1004.47 1004.33 1004.08 1003.76 1003.54 1003.00 1002.03 1002.28 1002.30 1002.57 1002.43 1002.18 1002.22 1001.93 1001.75 1001.82 1001.79 1001.86 1001.97 1002.16 1002.34 1002.64 1003.05 1003.76
1017.68 1017.32 1016.97 1016.59 1016.13 1015.69 1015.21 1014.72 1014.21 1013.37 1012.33 1012.29 1012.48 1012.43 1012.37 1012.13 1011.98 1011.75 1011.15 1010.99 1010.43 1009.93 1009.15 1008.04 1007.13 1006.15 1005.40 1005.02 1004.66 1004.87 1004.38 1004.24 1004.04 1003.53 1003.34 1002.31 1001.99 1002.33 1002.64 1002.73 1002.55 1002.28 1001.92 1001.55 1001.05 1000.64 1000.95 1000.96 1001.39 1001.85 1002.46 1002.84 1003.47 1004.14
1017.12 1016.78 1016.47 1016.09 1015.61 1015.24 1014.86 1014.47 1014.16 1013.93 1013.78 1013.78 1013.81 1013.30 1012.68 1011.75 1010.97 1010.90 1009.99 1009.60 1009.12 1008.48 1008.12 1007.78 1006.82 1006.17 1005.57 1005.45 1004.89 1004.94 1004.44 1004.51 1003.73 1003.83 1003.19 1002.14 1002.46 1002.84 1002.93 1002.65 1002.44 1001.85 1001.22 1000.73 1000.41 1000.25 1000.32 1000.68 1001.04 1001.47 1002.25 1003.00 1003.46 1004.17
1016.60 1016.27 1015.96 1015.50 1015.08 1014.70 1014.40 1014.19 1013.98 1013.76 1013.55 1013.36 1013.24 1012.65 1011.85 1011.05 1010.36 1010.29 1009.52 1008.44 1008.30 1008.13 1007.77 1007.36 1006.60 1005.87 1005.57 1005.46 1005.00 1004.73 1004.22 1004.02 1004.04 1003.45 1002.76 1002.52 1003.02 1003.15 1003.10 1002.74 1002.22 1001.38 1000.65 1000.25 1000.02 999.92 1000.13 1000.50 1001.19 1001.70 1002.47 1003.01 1003.68 1004.27
1016.06 1015.71 1015.37 1014.94 1014.59 1014.29 1014.12 1013.74 1013.35 1013.30 1013.26 1012.80 1012.24 1011.76 1010.96 1010.14 1009.60 1009.29 1009.14 1008.58 1007.79 1007.39 1007.26 1006.98 1006.18 1005.56 1005.17 1005.01 1004.85 1004.31 1004.51 1004.27 1003.63 1003.31 1002.88 1003.25 1003.50 1003.47 1003.29 1002.92 1002.35 1001.60 1000.85 1000.37 1000.17 1000.28 1000.23 1000.48 1001.25 1001.93 1002.65 1003.18 1003.85 1004.81
1015.50 1015.06 1014.70 1014.29 1014.19 1014.11 1013.72 1013.20 1012.89 1013.08 1012.77 1012.13 1011.76 1011.03 1010.20 1009.51 1009.12 1008.65 1008.41 1008.17 1007.65 1007.55 1007.11 1006.43 1006.16 1005.94 1005.08 1004.90 1004.81 1004.63 1004.41 1003.94 1003.63 1003.39 1003.48 1003.88 1003.87 1003.70 1003.31 1002.89 1002.40 1001.90 1001.26 1000.80 1000.55 1000.61 1000.77 1000.91 1001.42 1002.16 1003.00 1003.73 1004.33 1004.87
1015.07 1014.44 1014.01 1013.98 1013.99 1013.69 1013.29 1012.99 1013.03 1012.91 1012.49 1011.92 1011.42 1010.56 1009.71 1009.34 1008.51 1008.42 1008.15 1007.95 1007.96 1007.71 1007.28 1007.05 1006.36 1005.79 1005.26 1005.04 1004.82 1004.34 1004.36 1003.95 1004.15 1004.35 1004.46 1004.34 1004.02 1003.70 1003.36 1002.95 1002.44 1002.02 1001.42 1001.05 1000.99 1001.12 1001.26 1001.50 1001.85 1002.50 1003.36 1003.88 1004.22 1004.52
1014.82 1014.28 1013.85 1013.81 1013.57 1013.14 1012.75 1012.80 1012.63 1012.31 1011.67 1011.10 1010.20 1009.81 1009.58 1009.24 1008.76 1008.47 1008.43 1008.19 1008.17 1008.11 1007.52 1007.05 1006.77 1006.17 1005.84 1005.29 1004.79 1004.65 1004.73 1005.10 1005.47 1005.28 1004.94 1004.72 1004.42 1003.99 1003.45 1002.82 1002.17 1001.80 1001.46 1001.18 1001.58 1001.63 1001.78 1002.11 1002.46 1003.00 1003.49 1003.97 1004.19 1004.46
1014.41 1013.65 1013.65 1013.57 1013.38 1012.86 1012.50 1012.32 1011.87 1011.49 1010.75 1009.90 1009.58 1008.95 1008.96 1008.75 1008.54 1008.32 1008.17 1008.16 1008.26 1007.98 1007.69 1007.25 1006.96 1006.49 1006.07 1005.64 1005.16 1005.67 1005.94 1006.08 1006.11 1005.82 1005.35 1004.86 1004.38 1003.87 1003.29 1002.58 1002.00 1001.83 1001.71 1001.79 1001.93 1002.16 1002.42 1002.42 1002.74 1003.12 1003.48 1004.00 1004.32 1004.57
1013.71 1013.40 1013.00 1012.91 1013.02 1012.87 1012.32 1011.81 1011.59 1010.85 1009.78 1009.32 1008.84 1008.65 1008.46 1008.27 1008.14 1008.13 1008.16 1008.14 1008.26 1008.10 1007.92 1007.38 1007.01 1006.66 1006.47 1006.34 1006.11 1006.02 1006.06 1006.16 1005.97 1005.59 1005.09 1004.52 1004.03 1003.40 1003.04 1002.44 1002.33 1002.13 1002.00 1002.11 1002.33 1002.61 1002.84 1003.18 1002.79 1003.09 1003.51 1004.06 1004.11 1004.38
1013.18 1012.84 1012.62 1012.11 1012.51 1012.43 1012.06 1011.49 1011.21 1010.61 1009.63 1009.04 1008.78 1008.37 1008.22 1008.07 1008.04 1008.04 1008.08 1008.14 1008.14 1007.97 1007.72 1007.33 1007.19 1007.07 1006.89 1006.54 1006.46 1006.20 1006.10 1005.94 1005.72 1005.21 1004.60 1004.09 1003.57 1003.11 1002.74 1002.50 1002.52 1002.48 1002.43 1002.60 1002.85 1002.98 1003.32 1003.57 1003.38 1003.54 1003.72 1003.83 1003.91 1004.24
1012.84 1012.51 1012.39 1012.44 1012.34 1012.19 1011.67 1010.88 1010.37 1009.77 1009.19 1008.84 1008.41 1008.26 1007.94 1008.02 1008.05 1007.98 1008.08 1008.12 1008.03 1007.95 1007.88 1007.63 1007.32 1006.95 1006.78 1006.53 1006.17 1005.92 1005.63 1005.45 1005.10 1004.87 1004.40 1003.82 1003.35 1003.04 1002.57 1002.47 1002.45 1002.52 1002.38 1002.39 1002.94 1003.60 1003.79 1003.91 1003.84 1003.83 1003.84 1003.82 1004.00 1004.26
1012.72 1012.47 1012.19 1012.18 1011.81 1011.52 1011.13 1010.41 1009.99 1009.44 1009.18 1008.14 1008.04 1008.05 1007.92 1007.92 1007.93 1008.09 1008.43 1008.16 1008.47 1008.36 1008.14 1007.72 1007.52 1007.01 1006.62 1006.43 1005.95 1005.56 1005.21 1004.80 1004.44 1004.08 1003.69 1003.43 1003.30 1002.91 1002.55 1002.31 1002.36 1002.54 1002.79 1003.34 1003.46 1003.96 1004.11 1004.03 1003.95 1003.55 1003.62 1003.87 1003.93 1004.18
1012.64 1012.45 1012.00 1011.63 1011.36 1010.93 1010.12 1009.76 1009.29 1008.68 1008.29 1007.60 1007.57 1007.67 1007.72 1007.74 1007.82 1008.16 1008.44 1008.67 1008.80 1008.42 1008.12 1007.97 1007.74 1007.43 1006.97 1006.64 1005.69 1005.10 1004.54 1004.41 1004.07 1003.55 1003.10 1002.95 1003.34 1003.36 1003.36 1003.02 1002.84 1003.20 1003.44 1003.63 1004.17 1004.45 1004.32 1004.43 1004.06 1003.51 1003.75 1003.73 1003.84 1004.03
1012.20 1011.93 1011.49 1010.95 1010.70 1009.98 1009.23 1008.69 1008.43 1007.99 1007.58 1007.25 1007.12 1007.12 1007.49 1007.57 1007.75 1007.72 1008.11 1008.21 1008.08 1008.08 1007.58 1007.56 1007.78 1007.12 1006.92 1007.39 1005.50 1005.16 1004.84 1004.66 1004.42 1003.94 1003.65 1003.52 1003.72 1003.88 1004.03 1004.07 1004.02 1003.93 1004.06 1004.39 1004.57 1004.69 1004.42 1003.92 1003.83 1003.64 1003.69 1003.81 1003.92 1004.03
1012.19 1011.72 1011.36 1010.42 1009.82 1009.29 1008.36 1007.81 1007.51 1007.40 1007.02 1006.92 1006.94 1007.00 1007.25 1007.49 1007.27 1007.39 1007.64 1007.73 1007.61 1007.50 1007.41 1006.95 1007.20 1007.07 1006.78 1007.03 1006.62 1005.75 1005.45 1005.54 1005.03 1004.66 1004.46 1004.51 1004.39 1004.65 1004.67 1004.67 1004.58 1004.60 1004.50 1004.29 1004.33 1004.25 1004.17 1004.00 1003.86 1003.79 1003.89 1004.00 1004.12 1004.16
1011.50 1010.55 1010.23 1009.01 1008.52 1008.21 1007.49 1007.14 1007.00 1006.91 1006.86 1006.74 1006.75 1007.07 1007.19 1007.05 1006.95 1006.95 1007.25 1007.40 1007.22 1007.06 1007.25 1006.90 1006.80 1006.84 1006.91 1006.86 1006.27 1006.09 1005.47 1004.81 1004.67 1004.36 1004.45 1004.29 1004.18 1003.99 1004.07 1004.20 1004.31 1004.57 1004.41 1004.19 1004.04 1004.01 1003.98 1003.98 1004.01 1004.10 1004.10 1004.17 1004.21 1004.15
1010.63 1009.35 1008.70 1008.34 1007.82 1007.40 1006.97 1006.69 1006.72 1006.66 1006.57 1006.55 1006.66 1006.70 1006.82 1006.68 1006.57 1006.74 1007.01 1007.13 1007.08 1006.83 1006.86 1006.87 1006.78 1006.56 1006.40 1006.29 1006.04 1005.69 1005.20 1004.88 1004.78 1004.74 1004.71 1004.67 1004.60 1004.49 1004.24 1004.34 1004.64 1004.98 1004.50 1004.31 1004.30 1004.33 1004.35 1004.38 1004.44 1004.37 1004.21 1004.19 1004.23 1004.28
1009.19 1008.49 1007.73 1007.27 1007.11 1006.73 1006.31 1006.12 1006.15 1006.16 1006.26 1006.67 1006.81 1006.65 1006.68 1006.52 1006.62 1006.73 1006.81 1006.95 1006.96 1006.77 1006.64 1006.40 1006.40 1006.27 1006.02 1005.95 1005.80 1005.39 1005.09 1005.03 1004.86 1004.82 1004.73 1004.80 1004.91 1005.01 1005.09 1005.21 1005.42 1005.44 1005.42 1005.50 1005.15 1005.19 1005.25 1005.24 1005.10 1004.92 1004.82 1004.74 1004.80 1004.90
1008.15 1007.34 1007.06 1006.50 1006.31 1006.10 1005.79 1005.50 1005.40 1005.64 1005.99 1006.31 1006.33 1006.43 1006.56 1006.68 1006.69 1006.69 1006.81 1006.82 1006.85 1006.65 1006.40 1006.13 1006.06 1006.02 1005.88 1005.87 1005.73 1005.48 1005.18 1004.81 1004.63 1004.68 1004.83 1005.24 1005.32 1005.92 1005.92 1005.61 1005.52 1005.62 1005.69 1005.85 1006.47 1006.46 1006.38 1006.41 1006.17 1005.87 1005.63 1005.52 1005.57 1005.58
1006.75 1006.49 1006.13 1005.77 1005.46 1005.13 1004.89 1005.01 1005.19 1005.68 1006.08 1006.35 1006.45 1006.54 1006.60 1006.68 1006.74 1006.87 1006.91 1006.95 1006.88 1006.63 1006.51 1006.41 1006.30 1006.17 1005.91 1005.46 1005.40 1005.53 1005.58 1005.39 1005.30 1005.22 1005.42 1005.86 1006.25 1006.57 1006.43 1006.27 1006.18 1006.19 1006.22 1006.25 1006.49 1006.60 1006.72 1006.56 1006.62 1006.44 1006.45 1006.33 1006.31 1006.36
1005.85 1005.69 1005.35 1005.08 1004.82 1004.66 1004.74 1005.11 1005.44 1005.75 1006.06 1006.25 1006.45 1006.43 1006.42 1006.53 1006.61 1006.74 1006.81 1006.79 1006.74 1006.69 1006.52 1006.40 1006.26 1006.14 1005.94 1005.72 1005.57 1005.55 1005.81 1006.09 1006.09 1006.21 1006.49 1006.47 1006.61 1006.71 1006.72 1006.81 1006.87 1006.87 1006.81 1006.79 1006.95 1007.13 1007.18 1007.18 1007.21 1007.20 1007.32 1007.41 1007.54 1007.35
1005.20 1004.89 1004.68 1004.62 1004.73 1005.03 1005.14 1005.11 1005.38 1005.61 1005.91 1006.04 1006.13 1006.22 1006.26 1006.30 1006.18 1006.30 1006.46 1006.66 1006.62 1006.51 1006.37 1006.27 1006.12 1006.21 1006.35 1006.26 1006.21 1006.19 1006.19 1006.31 1006.41 1006.51 1006.63 1006.57 1006.74 1007.02 1007.14 1007.20 1007.27 1007.28 1007.33 1007.36 1007.46 1007.64 1007.79 1007.84 1007.96 1007.98 1008.24 1008.37 1008.29 1008.25
1004.54 1004.53 1004.51 1004.57 1004.87 1005.09 1005.41 1005.33 1005.55 1005.72 1005.74 1005.74 1005.81 1005.82 1005.86 1005.89 1005.80 1005.85 1006.12 1006.25 1005.98 1005.91 1005.91 1006.01 1006.25 1006.29 1006.40 1006.42 1006.37 1006.34 1006.59 1006.47 1006.73 1006.86 1006.99 1007.22 1007.25 1007.31 1007.41 1007.56 1007.76 1007.86 1007.90 1007.97 1008.08 1008.20 1008.34 1008.54 1008.71 1008.86 1008.94 1008.99 1009.04 1009.06
Thickness
5605 5606 5608 5610 5611 5613 5614 5614 5615 5616 5618 5618 5618 5619 5619 5618 5617 5617 5617 5613 5617 5627 5643 5650 5654 5657 5659 5658 5655 5666 5669 5670 5677 5673 5681 5686 5686 5700 5700 5705 5713 5722 5726 5731 5725 5732 5736 5766 5760 5763 5770 5772 5775 5774
5604 5605 5607 5609 5610 5611 5612 5612 5613 5615 5616 5617 5617 5617 5616 5615 5614 5613 5612 5610 5608 5609 5638 5643 5653 5658 5660 5664 5660 5662 5664 5663 5671 5673 5673 5682 5689 5686 5694 5699 5707 5713 5726 5736 5742 5751 5760 5765 5767 5767 5768 5767 5766 5766
5603 5605 5606 5607 5609 5610 5611 5611 5612 5614 5614 5615 5615 5615 5614 5612 5610 5608 5609 5608 5604 5607 5631 5644 5665 5667 5663 5664 5665 5654 5662 5665 5667 5670 5673 5670 5670 5681 5683 5698 5704 5714 5715 5723 5735 5742 5746 5752 5756 5759 5760 5763 5761 5761
5602 5603 5604 5605 5607 5608 5609 5610 5611 5612 5613 5613 5613 5613 5612 5611 5609 5607 5605 5606 5602 5604 5613 5658 5664 5666 5671 5667 5663 5666 5664 5662 5664 5663 5663 5669 5673 5675 5687 5687 5694 5705 5706 5712 5721 5733 5735 5744 5748 5751 5752 5753 5752 5754
5602 5603 5604 5604 5605 5606 5607 5608 5609 5610 5611 5612 5612 5612 5611 5609 5607 5604 5604 5604 5601 5603 5621 5640 5656 5667 5668 5665 5661 5659 5655 5654 5653 5661 5665 5669 5672 5671 5675 5679 5689 5697 5706 5709 5720 5730 5731 5733 5737 5739 5742 5743 5742 5742
5600 5601 5602 5602 5603 5604 5604 5605 5606 5607 5609 5609 5610 5610 5609 5607 5603 5599 5606 5600 5598 5592 5594 5620 5648 5659 5662 5661 5659 5655 5652 5648 5647 5654 5666 5673 5675 5675 5672 5676 5696 5698 5701 5708 5714 5720 5723 5727 5728 5730 5730 5731 5733 5735
5598 5599 5600 5600 5600 5601 5602 5602 5602 5603 5606 5607 5608 5608 5606 5601 5595 5596 5605 5594 5589 5584 5589 5613 5635 5655 5656 5654 5652 5648 5647 5646 5649 5653 5658 5667 5669 5667 5671 5671 5697 5697 5703 5705 5705 5706 5708 5714 5720 5722 5723 5724 5722 5722
5595 5595 5596 5597 5597 5598 5598 5598 5598 5600 5602 5603 5603 5603 5601 5592 5584 5584 5588 5580 5577 5578 5584 5601 5622 5637 5650 5650 5647 5645 5641 5641 5643 5654 5656 5662 5662 5666 5667 5688 5696 5693 5696 5698 5701 5704 5709 5711 5711 5710 5712 5713 5712 5710
5592 5592 5592 5593 5593 5594 5594 5595 5595 5597 5599 5597 5594 5589 5584 5577 5574 5572 5569 5564 5562 5566 5587 5594 5605 5623 5638 5635 5639 5640 5641 5637 5641 5649 5653 5655 5658 5662 5676 5681 5684 5680 5682 5687 5694 5694 5695 5698 5699 5701 5705 5704 5703 5700
5590 5590 5590 5589 5589 5590 5590 5591 5590 5591 5594 5591 5584 5584 5583 5559 5546 5539 5542 5545 5549 5566 5567 5583 5595 5606 5617 5630 5628 5631 5631 5630 5635 5641 5644 5647 5662 5658 5664 5664 5669 5672 5673 5681 5680 5679 5686 5689 5691 5694 5697 5699 5698 5691
5589 5588 5587 5585 5585 5585 5585 5584 5582 5583 5586 5582 5574 5571 5557 5547 5539 5536 5544 5550 5562 5569 5578 5587 5594 5600 5610 5615 5620 5615 5623 5619 5629 5635 5636 5646 5650 5653 5656 5657 5664 5669 5674 5678 5687 5695 5692 5695 5691 5689 5686 5688 5685 5680
5588 5586 5583 5582 5582 5581 5580 5577 5574 5572 5568 5563 5556 5552 5550 5554 5552 5545 5552 5554 5562 5575 5578 5579 5589 5595 5601 5602 5608 5609 5614 5612 5622 5622 5628 5635 5642 5643 5644 5651 5656 5666 5675 5680 5685 5688 5689 5688 5689 5688 5683 5679 5679 5676
5586 5584 5582 5582 5581 5579 5576 5573 5571 5568 5564 5561 5557 5559 5563 5561 5550 5550 5554 5570 5571 5566 5574 5576 5583 5593 5595 5597 5601 5605 5608 5612 5611 5615 5623 5631 5630 5633 5636 5643 5651 5665 5675 5678 5682 5686 5685 5684 5682 5680 5674 5675 5672 5669
5584 5583 5582 5581 5579 5578 5574 5574 5573 5568 5564 5568 5572 5565 5568 5570 5569 5565 5564 5567 5575 5577 5575 5578 5587 5594 5596 5598 5598 5605 5601 5603 5608 5610 5617 5619 5619 5622 5628 5636 5644 5654 5665 5671 5676 5676 5678 5677 5674 5672 5669 5668 5664 5657
5583 5583 5583 5582 5579 5576 5575 5575 5573 5568 5569 5576 5573 5562 5574 5576 5573 5575 5574 5574 5578 5576 5579 5585 5585 5584 5592 5594 5592 5594 5595 5599 5606 5609 5611 5610 5611 5615 5621 5629 5637 5644 5654 5661 5666 5668 5668 5670 5667 5663 5660 5656 5653 5651
5582 5584 5584 5581 5578 5577 5576 5573 5569 5567 5568 5571 5570 5576 5578 5574 5582 5578 5577 5575 5571 5571 5573 5574 5578 5580 5584 5584 5586 5592 5592 5599 5599 5600 5599 5602 5607 5611 5615 5622 5630 5637 5646 5654 5657 5658 5660 5660 5659 5657 5653 5651 5650 5650
5580 5582 5581 5579 5579 5579 5578 5574 5572 5574 5577 5576 5582 5577 5573 5574 5576 5576 5571 5570 5565 5562 5563 5565 5562 5568 5570 5575 5581 5586 5587 5585 5582 5586 5592 5595 5598 5602 5609 5617 5627 5634 5640 5647 5646 5649 5650 5652 5652 5648 5643 5644 5646 5644
5580 5583 5580 5579 5578 5579 5579 5577 5580 5581 5584 5587 5583 5587 5579 5577 5575 5573 5572 5568 5564 5563 5559 5561 5558 5560 5563 5568 5574 5568 5566 5568 5571 5577 5583 5588 5595 5601 5608 5616 5623 5628 5633 5636 5638 5639 5640 5643 5640 5640 5639 5637 5636 5636
5581 5581 5582 5581 5578 5577 5580 5583 5579 5584 5590 5589 5588 5585 5583 5582 5577 5574 5570 5565 5558 5557 5554 5556 5558 5556 5556 5555 5559 5561 5563 5564 5569 5576 5582 5589 5595 5602 5607 5614 5615 5620 5626 5629 5629 5629 5630 5630 5636 5637 5633 5631 5633 5632
5581 5582 5582 5584 5579 5580 5582 5585 5580 5580 5585 5588 5584 5585 5584 5583 5577 5575 5569 5561 5556 5554 5554 5555 5552 5553 5552 5554 5554 5556 5557 5561 5567 5575 5584 5590 5596 5601 5606 5610 5610 5613 5617 5618 5618 5621 5620 5621 5623 5623 5628 5630 5631 5629
5580 5581 5580 5578 5578 5577 5581 5585 5586 5586 5586 5585 5586 5583 5585 5579 5577 5575 5569 5561 5556 5555 5553 5551 5552 5554 5553 5554 5557 5558 5561 5565 5571 5576 5582 5588 5595 5598 5604 5606 5608 5611 5614 5615 5612 5609 5611 5612 5617 5619 5623 5627 5627 5627
5577 5578 5579 5577 5582 5582 5580 5584 5585 5584 5583 5591 5586 5579 5579 5580 5578 5573 5563 5563 5555 5552 5550 5551 5550 5553 5555 5556 5559 5562 5567 5572 5577 5582 5583 5589 5594 5599 5602 5604 5606 5606 5607 5605 5608 5606 5608 5611 5613 5620 5623 5622 5623 5622
5573 5574 5578 5580 5582 5578 5583 5585 5587 5589 5589 5592 5588 5582 5579 5578 5577 5571 5564 5559 5555 5555 5553 5552 5551 5552 5553 5553 5563 5568 5574 5576 5581 5587 5593 5596 5595 5596 5596 5597 5599 5600 5597 5597 5598 5599 5601 5602 5608 5617 5617 5619 5619 5618
5572 5576 5581 5584 5580 5581 5590 5592 5589 5590 5590 5590 5589 5586 5579 5577 5574 5575 5568 5566 5565 5561 5562 5560 5554 5558 5556 5549 5566 5572 5575 5577 5580 5584 5588 5592 5590 5589 5587 5587 5586 5592 5595 5594 5594 5595 5600 5606 5609 5614 5615 5615 5615 5614
5566 5572 5573 5563 5583 5585 5591 5594 5593 5591 5591 5589 5585 5584 5578 5573 5576 5574 5572 5571 5570 5569 5569 5570 5564 5563 5564 5561 5562 5568 5569 5570 5576 5580 5583 5583 5585 5581 5583 5582 5586 5589 5593 5595 5596 5598 5600 5605 5608 5610 5609 5608 5607 5607
5567 5579 5576 5594 5593 5590 5595 5592 5591 5590 5587 5585 5584 5577 5574 5575 5575 5576 5575 5574 5574 5574 5570 5573 5571 5568 5567 5565 5567 5569 5574 5581 5583 5587 5586 5588 5590 5591 5590 5590 5592 5590 5594 5598 5600 5601 5603 5604 5605 5604 5604 5604 5596 5604
5565 5585 5589 5587 5591 5592 5592 5592 5589 5588 5586 5584 5582 5580 5577 5575 5575 5578 5577 5575 5576 5578 5575 5574 5573 5575 5575 5574 5574 5577 5582 5586 5586 5586 5585 5585 5588 5592 5596 5596 5594 5592 5599 5603 5603 5602 5601 5601 5600 5600 5602 5601 5600 5598
5581 5585 5591 5594 5591 5593 5594 5593 5591 5588 5587 5581 5578 5577 5575 5576 5576 5578 5579 5578 5577 5579 5580 5581 5580 5579 5580 5580 5581 5584 5586 5586 5589 5590 5592 5592 5590 5590 5590 5590 5590 5587 5590 5590 5593 5593 5594 5594 5594 5593 5592 5590 5589 5588
5583 5590 5590 5592 5593 5592 5593 5596 5597 5595 5590 5583 5583 5580 5577 5576 5576 5577 5578 5578 5579 5580 5583 5585 5585 5584 5584 5583 5583 5585 5588 5591 5590 5586 5586 5584 5587 5583 5585 5589 5590 5589 5588 5586 5576 5578 5579 5581 5582 5582 5580 5579 5577 5574
5591 5591 5592 5594 5595 5596 5602 5600 5597 5591 5586 5583 5581 5579 5577 5575 5575 5575 5576 5577 5578 5581 5582 5582 5583 5582 5583 5588 5588 5586 5586 5588 5588 5588 5583 5579 5577 5577 5579 5580 5582 5583 5582 5580 5578 5576 5571 5572 5569 5568 5566 5564 5561 5558
5593 5592 5593 5596 5598 5601 5599 5596 5593 5589 5586 5584 5580 5579 5578 5576 5576 5575 5575 5577 5579 5580 5581 5582 5583 5584 5585 5587 5587 5587 5583 5583 5583 5582 5582 5580 5578 5577 5577 5575 5574 5573 5572 5570 5568 5565 5563 5561 5558 5554 5550 5545 5541 5541
5594 5595 5596 5595 5596 5592 5593 5593 5591 5589 5585 5583 5581 5581 5580 5579 5580 5580 5579 5577 5578 5579 5579 5581 5584 5582 5582 5584 5584 5584 5580 5583 5582 5581 5580 5580 5578 5575 5573 5572 5570 5568 5565 5563 5561 5557 5553 5549 5545 5541 5535 5530 5529 5527
5596 5596 5595 5595 5591 5588 5584 5587 5581 5581 5583 5583 5581 5583 5582 5582 5581 5583 5582 5581 5584 5586 5585 5584 5582 5582 5581 5582 5583 5584 5581 5583 5580 5577 5575 5573 5573 5572 5571 5567 5563 5559 5555 5551 5549 5546 5541 5536 5532 5528 5525 5522 5518 5514